Location: Drocourt
(49.0571°N, 1.7669°E)
Time: 02:41:48
(UTC+00:00)

Transit 4A - Pass Details

Date: 20 April 2024
Orbit: 871 x 971 km, 66.8° (Epoch: 19 May)

Event Time Altitude Azimuth Distance (km) Brightness Sun altitude
Rises 18:43:56 0° 322° (NW) 3,478 12.0 0.6°
Reaches altitude 10° 18:47:06 10° 339° (NNW) 2,532 10.8 0.1°
Maximum altitude 18:51:25 21° 26° (NNE) 1,878 9.5 -0.5°
Drops below altitude 10° 18:55:44 10° 74° (ENE) 2,529 9.7 -1.2°
Enters shadow 18:58:50 - 91° (E) 3,458 10.3 -1.7°
Sets 18:58:53 0° 91° (E) 3,473 - -1.7°
